Weather History for KTEB - December, 2012

Change the Weather History Date:

Sunday, December 9, 2012

  Actual Average Record
Temperature  
Mean Temperature 45 °F -  
Max Temperature 48 °F 44 °F 63 °F (1991)
Min Temperature 42 °F 30 °F 18 °F (2002)
Degree Days  
Heating Degree Days 20    
Moisture  
Dew Point 41 °F    
Average Humidity 87    
Maximum Humidity 100    
Minimum Humidity 66    
Precipitation  
Precipitation 0.31 in - - ()
Sea Level Pressure  
Sea Level Pressure 30.14 in    
Wind  
Wind Speed 3 mph (NNE)    
Max Wind Speed 10 mph    
Max Gust Speed -    
Visibility 6 miles    
Events Fog , Rain    
Averages and records for this station are not official NWS values.
T = Trace of Precipitation, MM = Missing Value Source: NWS Daily Summary

Daily Weather History Graph

Daily Weather History Graph

Search for Another Location

Airport or City:

Trip Planner

Search our weather history database for the weather conditions in past years. The results will help you decide how hot, cold, wet, or windy it might be!

Date:

Astronomy

Dec. 09, 2012 Rise Set
Actual Time 7:09 AM EST 4:28 PM EST
Civil Twilight 6:38 AM EST 4:59 PM EST
Nautical Twilight 6:04 AM EST 5:33 PM EST
Astronomical Twilight 5:30 AM EST 6:06 PM EST
Moon 2:37 AM EST (12/9) 1:34 PM EST (12/9)
Length of Visible Light 10h 20m
Length of Day
9h 18m
Waning Crescent, 19% of the Moon is Illuminated
Dec 9
Waning Crescent
Dec 13
New
Dec 20
First Quarter
Dec 28
Full
Jan 4
Last Quarter

Hourly Weather History & Observations

Time (EST) Temp. Windchill Dew Point Humidity Pressure Visibility Wind Dir Wind Speed Gust Speed Precip Events Conditions
12:51 AM 48.0 °F - 48.0 °F 100% 30.01 in 3.0 mi Calm Calm - 0.00 in   Overcast
1:43 AM 46.4 °F - 46.4 °F 100% 30.03 in 3.0 mi Calm Calm - N/A Fog Patches of Fog
1:51 AM 46.9 °F - 46.0 °F 97% 30.04 in 3.0 mi Calm Calm - N/A Fog Patches of Fog
2:51 AM 46.9 °F - 46.0 °F 97% 30.05 in 3.0 mi Calm Calm - N/A Fog Patches of Fog
3:34 AM 44.6 °F - 42.8 °F 93% 30.07 in 3.0 mi Calm Calm - N/A Fog Patches of Fog
3:51 AM 43.0 °F - 42.1 °F 97% 30.07 in 3.0 mi Calm Calm - N/A Fog Patches of Fog
3:58 AM 44.6 °F - 44.6 °F 100% 30.07 in 0.5 mi Calm Calm - N/A Fog Patches of Fog
4:04 AM 44.6 °F - 44.6 °F 100% 30.07 in 1.2 mi Calm Calm - N/A Fog Patches of Fog
4:22 AM 44.6 °F - 42.8 °F 93% 30.08 in 3.0 mi Calm Calm - N/A Fog Patches of Fog
4:51 AM 43.0 °F 40.3 °F 43.0 °F 100% 30.09 in 10.0 mi NW 4.6 mph - N/A Fog Shallow Fog
5:51 AM 46.4 °F 42.9 °F 42.8 °F 87% 30.14 in 10.0 mi North 6.9 mph - N/A   Clear
6:51 AM 45.0 °F 42.6 °F 42.1 °F 90% 30.18 in 10.0 mi North 4.6 mph - N/A   Scattered Clouds
7:51 AM 46.9 °F - 44.1 °F 90% 30.19 in 10.0 mi NNE 4.6 mph - N/A   Overcast
8:51 AM 46.0 °F 41.4 °F 39.9 °F 79% 30.22 in 10.0 mi NNE 9.2 mph - N/A   Overcast
9:51 AM 44.1 °F 39.5 °F 37.0 °F 76% 30.25 in 10.0 mi NNE 8.1 mph - N/A   Overcast
10:51 AM 44.1 °F 40.1 °F 34.0 °F 68% 30.25 in 10.0 mi NNE 6.9 mph - 0.00 in Rain Light Rain
11:51 AM 44.1 °F 39.5 °F 34.0 °F 68% 30.23 in 10.0 mi NE 8.1 mph - 0.00 in   Overcast
12:51 PM 44.1 °F - 34.0 °F 68% 30.22 in 10.0 mi North - - 0.00 in   Overcast
1:01 PM 44.6 °F 40.7 °F 33.8 °F 66% 30.21 in 10.0 mi NNE 6.9 mph - N/A   Overcast
1:51 PM 44.1 °F 38.6 °F 34.0 °F 68% 30.20 in 10.0 mi NE 10.4 mph - 0.00 in Rain Light Rain
2:51 PM 44.6 °F 39.2 °F 33.8 °F 66% 30.21 in 10.0 mi NE 10.4 mph - N/A Rain Light Rain
3:51 PM 43.0 °F 37.2 °F 36.0 °F 76% 30.21 in 10.0 mi NE 10.4 mph - 0.01 in Rain Light Rain
4:51 PM 43.0 °F 41.3 °F 37.0 °F 80% 30.20 in 10.0 mi North 3.5 mph - 0.00 in   Light Drizzle
5:51 PM 42.1 °F 39.2 °F 37.9 °F 85% 30.20 in 7.0 mi NE 4.6 mph - 0.01 in   Light Drizzle
6:49 PM 42.8 °F 41.1 °F 39.2 °F 87% 30.19 in 3.0 mi NNE 3.5 mph - 0.00 in   Light Drizzle
6:51 PM 42.1 °F 39.2 °F 39.0 °F 89% 30.19 in 3.0 mi NNE 4.6 mph - 0.00 in   Light Drizzle
7:34 PM 42.8 °F - 39.2 °F 87% 30.17 in 2.0 mi Calm Calm - 0.01 in Rain Light Rain
7:51 PM 42.1 °F - 41.0 °F 96% 30.17 in 2.0 mi Calm Calm - 0.01 in Rain Light Rain
8:51 PM 44.1 °F 40.8 °F 42.1 °F 93% 30.12 in 2.0 mi ENE 5.8 mph - 0.03 in Rain Rain
9:40 PM 44.6 °F 40.2 °F 42.8 °F 93% 30.09 in 7.0 mi East 8.1 mph - 0.02 in Rain Light Rain
9:51 PM 45.0 °F 40.1 °F 43.0 °F 93% 30.07 in 4.0 mi ENE 9.2 mph - 0.02 in Rain Light Rain
10:51 PM 44.1 °F 40.1 °F 43.0 °F 96% 30.09 in 3.0 mi NNW 6.9 mph - 0.11 in Rain Rain
11:51 PM 45.0 °F 42.6 °F 43.0 °F 93% 30.02 in 9.0 mi NNE 4.6 mph - 0.12 in Rain Rain